Regional Weather Roundup
Issued by NWS

Home | Current Version | Previous Version | Graphics & Text | Print | Product List | Glossary On
Versions: 1 2 3 4 5 6 7 8 9 10 11 12 13 14 15 16 17 18 19 20 21 22 23 24 25 26 27 28 29 30 31 32 33 34 35 36 37 38 39 40 41 42 43 44 45 46 47 48 49 50
084
ASUS44 KJAN 021203
RWRMS

MISSISSIPPI HOURLY WEATHER ROUNDUP
NATIONAL WEATHER SERVICE JACKSON MS
700 AM CDT THU OCT 02 2014

NOTE: "FAIR: INDICATES FEW OR NO CLOUDS BELOW 12,000 FEET WITH NO
SIGNIFICANT WEATHER AND/OR OBSTRUCTIONS TO VISIBILITY.

MSZ001>002-007>008-010>013-018>021-025>028-034>036-021300-
NORTHWEST MISSISSIPPI

CITY           SKY/WX    TMP DP  RH WIND       PRES   REMARKS
CLARKSDALE     CLOUDY    75  72  88 SE8       29.94R
CLEVELAND      CLOUDY    76  73  91 S8        29.93R
GREENWOOD      CLOUDY    73  70  90 S7        29.95R
6HR MIN TEMP:  72; 6HR MAX TEMP:  74;

GREENVILLE     CLOUDY    77  72  84 S9        29.93R
6HR MIN TEMP:  76; 6HR MAX TEMP:  78;

GRENADA        CLOUDY    72  68  88 S3        29.97R
OLIVE BRANCH   MOCLDY    68  68 100 S7        29.95R
OXFORD         MOCLDY    68  64  88 SE6       29.99R
TUNICA         CLOUDY    72  68  88 S9        29.94R
$$

MSZ003>006-009-014>017-022>024-029>033-037>039-021300-
NORTHEAST MISSISSIPPI

CITY           SKY/WX    TMP DP  RH WIND       PRES   REMARKS
COLUMBUS AFB   MOCLDY    67  65  91 SE7       30.00R
6HR MIN TEMP:  64; 6HR MAX TEMP:  71;

CORINTH          N/A     63  61  94 SE3       29.99R
GOLDN TRIANGLE CLOUDY    68  61  77 SE8       29.99R
STARKVILLE     CLOUDY    68  66  94 CALM      29.99R
TUPELO         MOCLDY    68  63  84 S3        29.99R
6HR MIN TEMP:  66; 6HR MAX TEMP:  69;

$$

MSZ040-058-021300-
CENTRAL MISSISSIPPI

CITY           SKY/WX    TMP DP  RH WIND       PRES   REMARKS
JACKSON INTL   CLOUDY    76  73  91 SE7       29.97R
6HR MIN TEMP:  74; 6HR MAX TEMP:  76;

JACKSON HAWKNS CLOUDY    77  73  87 S9        29.97R
6HR MIN TEMP:  76; 6HR MAX TEMP:  77;

MERIDIAN KEY   CLOUDY    73  71  93 S5        30.00R
6HR MIN TEMP:  68; 6HR MAX TEMP:  73;

MERIDIAN NAS   CLOUDY    72  70  93 S3        30.00R
6HR MIN TEMP:  68; 6HR MAX TEMP:  74;

RAYMOND        FAIR      75  72  88 SE5       29.96R
VICKSBURG      CLOUDY    77  73  87 S6        29.94R
6HR MIN TEMP:  76; 6HR MAX TEMP:  78;

$$

MSZ059>079-021300-
SOUTH MISSISSIPPI

CITY           SKY/WX    TMP DP  RH WIND       PRES   REMARKS
BROOKHAVEN     CLOUDY    75  75 100 SE3       29.99R
COLUMBIA       CLOUDY    75  75 100 S5        29.97S
HATTIESBURG    MOCLDY    75  73  93 CALM      30.00R
6HR MIN TEMP:  75; 6HR MAX TEMP:  76;

MCCOMB         CLOUDY    77  74  90 S7        29.98R
6HR MIN TEMP:  75; 6HR MAX TEMP:  77; 6HR PCP: TRACE;

NATCHEZ        CLOUDY    75  73  94 S7        29.96R
6HR MIN TEMP:  75; 6HR MAX TEMP:  77;

PINE BELT      MOCLDY    73  72  94 S5        30.00R
                                      6HR PCP:  0.01;

$$

MSZ080>082-021300-
COASTAL MISSISSIPPI

CITY           SKY/WX    TMP DP  RH WIND       PRES   REMARKS
BAY ST LOUIS   PTCLDY    75  72  88 CALM      29.98  FOG
BILOXI         PTCLDY    79  78  95 SE5       29.99R
6HR MIN TEMP:  79; 6HR MAX TEMP:  80;

PASCAGOULA     MOCLDY    73  72  96 CALM      29.99R
6HR MIN TEMP:  70; 6HR MAX TEMP:  75;

GULFPORT       CLEAR     78  76  93 SE5       29.98R
6HR MIN TEMP:  78; 6HR MAX TEMP:  80;

$$



USA.gov is the U.S. government's official web portal to all federal, state and local government web resources and services.